{"data":{"norad_id":62696,"epoch":"2026-09-19T11:48:43.525152Z","epoch_age_seconds":105193,"freshness":"FRESH","line1":"1 62696U 25009CR  26262.49217043  .00004620  00000+0  34248-3 0  9998","line2":"2 62696  97.6885 343.4465 0003365 124.7226 235.4317 15.03586690 91721","mean_motion":15.0358669,"eccentricity":0.0003365,"inclination_deg":97.6885,"raan_deg":343.4465,"arg_perigee_deg":124.7226,"mean_anomaly_deg":235.4317,"bstar":0.00034248,"rev_number":9172,"period_min":95.770999409419,"perigee_km":553.51410357465,"apogee_km":558.18067506866,"semimajor_km":6933.9843893217,"source":"CELESTRAK","updated_at":"2026-09-20T09:00:34.872813Z"}}